Regional Weather Roundup
Issued by NWS Grand Forks, ND

Home | Current Version | Previous Version | Graphics & Text | Print | Product List | Glossary On
Versions: 1 2 3 4 5 6 7 8 9 10 11 12 13 14 15 16 17 18 19 20 21 22 23 24 25 26 27 28 29 30 31 32 33 34 35 36 37 38 39 40 41 42 43 44 45 46 47 48 49 50
801
ASUS43 KFGF 272231
RWRFGF
PRAIRIE TO PINES  WEATHER ROUNDUP
NATIONAL WEATHER SERVICE EASTERN NORTH DAKOTA/GRAND FORKS ND
500 PM CDT THU APR 27 2017

 **SATELLITE DATA USED TO AUGMENT SKY COVER AT AUTOMATED STATIONS**
 *****  WEATHER ACROSS EASTERN NORTH DAKOTA  *****

CITY           SKY/WX    TMP DP  RH WIND       PRES   REMARKS
GRAND FORKS    CLOUDY    46  32  58 N16G24    29.65S
GRAND FRKS AFB CLOUDY    44  31  59 N20G25    29.65F
DEVILS LAKE    PTSUNNY   48  28  46 N21G28    29.70R
FARGO          FAIR      39  28  64 NW8       29.67F
WAHPETON ARPT  CLOUDY    37  28  70 N14       29.69S
$$

 ***** WEATHER ACROSS CENTRAL AND WESTERN NORTH DAKOTA  *****

CITY           SKY/WX    TMP DP  RH WIND       PRES   REMARKS
BISMARCK       FAIR      53  27  36 E13       29.71S
MINOT          FAIR      53  18  25 NE14G23   29.72F
JAMESTOWN      PTSUNNY   48  30  49 N18       29.66F
MINOT AFB      FAIR      50  19  28 N12G21    29.72S
GARRISON         N/A     50  18  28 NE8       29.72R
WILLISTON      FAIR      54  18  24 SE8G17    29.73S
DICKINSON      FAIR      49  21  33 NE12G21   29.67S
HETTINGER      FAIR      50  25  37 VRB7      29.68S
$$

 *****  OTHER AIRPORT OBSERVATIONS IN OUR AREA  *****

CITY           SKY/WX    TMP DP  RH WIND       PRES   REMARKS
WALHALLA       NOT AVBL
GRAFTON AIRPOR CLOUDY    46  32  57 N17G29    29.68R
VALLEY CITY AR MOCLDY    46  30  53 N14G24    29.68R
CANDO          NOT AVBL
CAVALIER APRT  FAIR      46  28  49 N21G32    29.67R
GWINNER        MOCLDY    45  34  65 MISG      29.68S
SHEYENNE NWR     N/A     44  30  57 N9        29.95S
ROLLA          FAIR      46  28  49 N20G28    29.72S
 ***** THE ABOVE OBSERVATIONS ARE NON NWS ARE NOT QUALITY
       CONTROLLED AND MAY MIS-REPORT RAIN FOR SNOW...
$$

  *****  WEATHER ACROSS NORTHERN MINNESOTA  *****

CITY           SKY/WX    TMP DP  RH WIND       PRES   REMARKS
FLAG ISLAND    CLOUDY    28  21  74 N20G26    29.63S WCI  15
WARROAD        FLURRIES  30  23  74 N12       29.65R WCI  21
ROSEAU         FLURRIES  34  27  75 N9        29.65S
HALLOCK        CLOUDY    41  30  65 N16       29.66R
THF RVR FALLS  CLOUDY    31  24  75 NE10      29.66S WCI  22
BAUDETTE       CLOUDY    28  19  69 N16       29.60S WCI  16
WASKISH        PTSUNNY   28  21  74 NW9       29.61S WCI  20
CROOKSTON      CLOUDY    37  28  70 E7        29.67S
STEPHEN NDAWN    N/A     39  30  70 NE9         N/A
GREENBUSH NDAW   N/A     32  27  80 NE8         N/A  WCI  25
$$
  *****  WEATHER ACROSS CENTRAL AND WEST MINNESOTA  *****

CITY           SKY/WX    TMP DP  RH WIND       PRES   REMARKS
FOSSTON        CLOUDY    28  21  74 N15       29.65S WCI  17
BEMIDJI        MIX PCPN  28  23  82 NW10      29.61R WCI  19
PARK RAPIDS    CLOUDY    31  19  61 NW15      29.61R WCI  20
ELBOW LAKE     CLOUDY    32  26  78 NW15      29.68R WCI  22
WADENA         CLOUDY    28  25  86 NW12      29.63R WCI  18
DETROIT LAKES  CLOUDY    32  28  86 N13G18    29.66S WCI  22
MOORHEAD       FAIR      37  28  70 N12       29.68F
FERGUS FALLS   CLOUDY    34  25  69 N13G22    29.68S WCI  25
MORRIS MN      CLOUDY    36  27  69 NW17      29.68S
STAPLES        CLOUDY    28  25  86 NW12      29.63R WCI  18
$$
  *****  WEATHER ELSEWHERE ACROSS MINNESOTA  *****

CITY           SKY/WX    TMP DP  RH WIND       PRES   REMARKS
DULUTH         CLOUDY    29  20  69 NW10      29.53R WCI  20
INTRNTL FALLS  CLOUDY    29  19  66 N13       29.56S WCI  19
ELY            CLOUDY    27  18  69 NW10G16   29.50S WCI  17
CLOQUET        CLOUDY    28  19  69 W12       29.56R WCI  18
WHEATON        CLOUDY    37  27  65 NW15      29.72R
BRAINERD       CLOUDY    30  22  72 NW10      29.61R WCI  21
HIBBING        CLOUDY    27  19  72 NW12      29.54R WCI  17
ALEXANDRIA     CLOUDY    32  24  72 NW10      29.65R WCI  24
SAINT CLOUD    CLOUDY    32  24  72 NW10      29.63S WCI  24
MINNEAPOLIS    CLOUDY    35  24  64 NW13      29.64R
$$

  *****  WEATHER ACROSS SOUTH DAKOTA  *****

CITY           SKY/WX    TMP DP  RH WIND       PRES   REMARKS
SIOUX FALLS    FAIR      51  34  52 NW13G18   29.67F
BROOKINGS      FAIR      44  28  53 N13G21    29.66F
WATERTOWN      FAIR      41  26  55 NW16G24   29.67F
HURON          FAIR      49  28  44 N10       29.69S
SISSETON         N/A     41  30  65 N16       29.68S
ABERDEEN       PTSUNNY   48  29  47 VRB7      29.70F
MITCHELL       FAIR      51  30  44 N12G17    29.70S
PIERRE         FAIR      50  29  44 CALM      29.66F
MOBRIDGE       FAIR      55  25  31 N12       29.65F
RAPID CITY     PTSUNNY   46  32  58 E8        29.63S
$$

  *****  SOME WEATHER IN NEARBY STATES *****

CITY           SKY/WX    TMP DP  RH WIND       PRES   REMARKS
GLASGOW MT     FAIR      55  23  28 E8        29.68R
GREAT FALLS MT LGT RAIN  40  36  86 W14       29.74R
CHEYENNE WY    FAIR      42  34  73 CALM      29.53F
SCOTTSBLUFF NE LGT RAIN  43  40  89 W6        29.56R FOG
OMAHA NE       FAIR      58  34  40 NW8       29.69F
DES MOINES IA  PTSUNNY   58  35  42 W15       29.68S
DAVENPORT IA   CLOUDY    44  36  73 W16       29.72S
CHICAGO IL     CLOUDY    46  37  71 W18G30    29.70R
EAU CLAIRE WI  CLOUDY    34  26  72 W15       29.60R WCI  24
LA CROSSE WI   CLOUDY    41  31  67 W17G24    29.63R
$$

  *****  SOME NATIONAL WEATHER *****

CITY           SKY/WX    TMP DP  RH WIND       PRES   REMARKS
LA GUARDIA NY  CLOUDY    65  57  75 SE12      29.89R
RALEIGH NC     CLOUDY    78  59  51 SW12      29.87R
ATLANTA GA     PTSUNNY   78  68  71 SW10      29.81S
NEW ORLEANS LA FAIR      80  61  52 N7        29.78S
OKLAHOMA CITY  PTSUNNY   67  48  50 SE18G35   29.59F
ALBUQUERQUE NM PTSUNNY   67  32  27 N16G32    29.57F
SALT LAKE CITY PTSUNNY   50  23  34 NW17G24   29.82F
LOS ANGELES CA PTSUNNY   67  53  61 W21       29.76F
BOISE ID       CLOUDY    49  25  39 NW16G25   29.94S
SEATTLE WA     PTSUNNY   53  41  63 SW7       30.08R
$$

*** WEATHER ACROSS MANITOBA...SASKATCHEWAN AND ONTARIO ***
                ***ONTARIO***

CITY           SKY/WX    TMP DP  RH WIND       PRES   REMARKS
GERALDTON      LGT SNOW  30  28  93 N7        29.28F FOG     WCI  23
THUNDER BAY    LGT SNOW  25  21  86 W12G18    29.43R VSB 1   WCI  14
SIOUX LOOKOUT  FRZ DRZL  23  19  86 N5        29.54F VSB 3/4 WCI  17
TORONTO        TSTM      68  59  73 W21       29.58R
BIG TROUT LK   CLOUDY    30   3  31 NE15G23   29.78S WCI  19
PICKLE LAKE    SNOW      23  21  93 N10G22    29.52F VSB 1/2 WCI  12
DRYDEN         LGT SNOW  25  21  86 N9G18     29.54F WCI  15
KENORA         CLOUDY    28  18  64 N10       29.60S WCI  19
$$
                *** MANITOBA***

CITY           SKY/WX    TMP DP  RH WIND       PRES   REMARKS
BRANDON        MOSUNNY   48  27  43 NE24G30   29.77S
DAUPHIN        SUNNY     48  16  27 NE13      29.84S
ISLAND LAKE    PTSUNNY   39   1  20 N12G22    29.89
PILOT MOUND      N/A     46  25  42 N18G30      N/A
THE PAS        MOSUNNY   45  10  24 N10       29.93F
THOMPSON       PTSUNNY   41   0  17 E5        29.98F
WINNIPEG       PTSUNNY   41  28  60 N26G39    29.71R
LYNN LAKE      SUNNY     43   7  22 VRB2      29.97S
CHURCHILL      SUNNY     34  16  47 S10       30.09S
GILLAM         MOSUNNY   37   1  22 NE6       30.03F
$$
                ***SASKATCHEWAN***

CITY           SKY/WX    TMP DP  RH WIND       PRES   REMARKS
ESTEVAN        MOSUNNY   52  12  20 E10       29.76S
KINDERSLEY     CLOUDY    37  34  87 N8        29.76S
LLOYDMINSTER   LGT SNOW  34  32  93 SE16      29.82R WCI  23
PRINCE ALBERT  PTSUNNY   46  12  25 SE8       29.87F
REGINA         MOSUNNY   50  12  22 E8        29.78S
YORKTON        SUNNY     52   5  15 N10       29.81S
N. BATTLEFORD  CLOUDY    43  28  56 E14       29.84S
LA RONGE       MOSUNNY   48   5  17 NE10      29.92S
SASKATOON      CLOUDY    48  18  29 SE15G22   29.82S
SWIFT CURRENT  CLOUDY    46  32  57 S12       29.72R
$$
NOTE: THESE ARE AUTOMATED STATIONS WITH LIMITED QUALITY CONTROL
      "FAIR" INDICATES FEW OR NO CLOUDS BELOW 12,000 FEET WITH NO
      SIGNIFICANT WEATHER AND/OR OBSTRUCTIONS TO VISIBILITY.
      SKY/WX - SKY CONDITION AND SIGNIFICANT WEATHER.
      TMP - AIR TEMPERATURE.    DP   - DEWPOINT TEMPERATURE.
      RH  - RELATIVE HUMIDITY.  PRES - PRESSURE.
      HX  - HEAT INDEX.         WCI  - WIND CHILL INDEX.
$




USA.gov is the U.S. government's official web portal to all federal, state and local government web resources and services.